Regional Weather Roundup
Issued by NWS

Home | Current Version | Previous Version | Text Only | Print | Product List | Glossary On
Versions: 1 2 3 4 5 6 7 8 9 10 11 12 13 14 15 16 17 18 19 20 21 22 23 24 25 26 27 28 29 30 31 32 33 34 35 36 37 38 39 40 41 42 43 44 45 46 47 48 49 50
000
ASUS44 KOUN 040500
RWROK

WEATHER ROUNDUP FOR OKLAHOMA
NATIONAL WEATHER SERVICE NORMAN OK
1200 AM CDT FRI SEP 04 2015

NOTE: "FAIR" INDICATES FEW OR NO CLOUDS BELOW 12,000 FEET WITH NO
      SIGNIFICANT WEATHER AND/OR OBSTRUCTIONS TO VISIBILITY.

OKZ001>007-009>012-014-015-017-040600-
NORTHWEST OKLAHOMA AND THE PANHANDLE

CITY           SKY/WX    TMP DP  RH WIND       PRES   REMARKS
GAGE           PTCLDY    80  58  46 S18       29.89S
GUYMON         MOCLDY    77  54  44 S13       29.89S
$$

OKZ016-021>023-033>039-044-045-040600-
SOUTHWEST OKLAHOMA

CITY           SKY/WX    TMP DP  RH WIND       PRES   REMARKS
LAWTON/REGL    PTCLDY    80  62  54 SE9       29.90S
FREDERICK      CLEAR     79  63  57 SE12      29.87S
CLINTON        CLEAR     79  60  52 S14       29.93R
HOBART         PTCLDY    80  60  50 S10       29.90S
$$

OKZ018>020-024>031-040600-
CENTRAL OKLAHOMA

CITY           SKY/WX    TMP DP  RH WIND       PRES   REMARKS
OKLAHOMA CITY  PTCLDY    72  65  78 SE7       29.91S
OKC/WILEY POST CLEAR     79  63  57 S12       29.91S
STILLWATER     CLEAR     75  65  70 S6        29.90S
GUTHRIE        CLEAR     80  62  54 S9        29.90S
$$

OKZ008-013-054>072-040600-
NORTHEAST OKLAHOMA

CITY           SKY/WX    TMP DP  RH WIND       PRES   REMARKS
TULSA          MOCLDY    78  71  79 SE7       29.89S
TULSA/JONES    CLEAR     73  70  90 SW3       29.91R
PONCA CITY     CLEAR     79  66  64 SE12      29.89S
BARTLESVILLE   PTCLDY    70  70 100 CALM      29.92R
MUSKOGEE       CLEAR     74  71  91 S6        29.92S
$$

OKZ032-040>043-046>053-073>077-040600-
SOUTH CENTRAL/SOUTHEAST OKLAHOMA

CITY           SKY/WX    TMP DP  RH WIND       PRES   REMARKS
MCALESTER      PTCLDY    78  65  63 SE5       29.92S
$$



USA.gov is the U.S. government's official web portal to all federal, state and local government web resources and services.